Content
SEND FEEDBACK

Daily
Averages
Monthly
Summary
Spain

BILBAO, SPAIN


Home > Europe > Spain
Elevation: 112 feet     Latitude: 43 18N     Longitude: 002 56W

WEATHER
 
SELECT A DAY
Number of Records: 231,087;   Date Range: 7/1/96 - 10/20/14
 
SHARE

PRINT THIS DATA

[ ← Previous Day ]
WEATHER ALMANAC - FEBRUARY 9, 2013
[ Next Day → ]
[ °C ]   °F
Weather ElementAverageHighLow
Temperature45.3 °F50 °F (12:30 pm)37.4 °F (6:30 am)
Dewpoint40.1 °F42.8 °F (11:00 am)37.4 °F (5:30 am)
Humidity82.6 %100 % (6:30 am)66 % (12:30 pm)
Barometer30.26 in30.30 in (9:30 am)30.18 in (11:30 pm)
Wind Speed6.4 mph13.8 mph (1:00 pm)
Weather ElementAverage
Visibility6 mi
Wind DirectionSSW (186.1 °)

Weather ElementTotal
Precipitation---
Heating Degree Days21.3 (Base 65)
Averaged from 36 records on February 9, 2013
WEATHER CONDITIONS BREAKOUT
WIND DIRECTION BREAKOUT
WEATHER BY HOUR - FEBRUARY 9, 2013
[ °C ]   °F
Local TimeTemperatureDewpointHumidityBarometerVisibilityWind DirectionWind SpeedGust SpeedPrecipitationEventsConditions
5:30 AM39.2 °F37.4 °F93 %30.24 in6.2 miCalmMostly Cloudy
6:00 AM39.2 °F37.4 °F93 %30.24 in6.2 miCalmMostly Cloudy
6:30 AM37.4 °F37.4 °F100 %30.27 in6.2 miVariable2.3 mphMostly Cloudy
7:00 AM39.2 °F37.4 °F93 %30.27 in6.2 miVariable2.3 mphMostly Cloudy
7:30 AM39.2 °F37.4 °F93 %30.27 in6.2 miEast (100°)3.5 mphMostly Cloudy
8:00 AM37.4 °F37.4 °F100 %30.27 in6.2 miSE (130°)3.5 mphMostly Cloudy
8:30 AM39.2 °F37.4 °F93 %30.27 in6.2 miVariable1.2 mphMostly Cloudy
9:00 AM39.2 °F39.2 °F100 %30.27 in6.2 miVariable1.2 mphRainLight Rain
9:30 AM39.2 °F39.2 °F100 %30.30 in6.2 miVariable1.2 mphMostly Cloudy
10:00 AM42.8 °F41.0 °F93 %30.30 in6.2 miCalmMostly Cloudy
10:30 AM44.6 °F41.0 °F87 %30.30 in6.2 miVariable1.2 mphMostly Cloudy
11:00 AM46.4 °F42.8 °F87 %30.30 in6.2 miVariable1.2 mphScattered Clouds
11:30 AM48.2 °F42.8 °F82 %30.30 in6.2 miNNW (340°)3.5 mphScattered Clouds
12:00 PM48.2 °F39.2 °F71 %30.30 in6.2 miNorth (350°)10.4 mphScattered Clouds
12:30 PM50.0 °F39.2 °F66 %30.30 in6.2 miNNW (330°)10.4 mphScattered Clouds
1:00 PM50.0 °F39.2 °F66 %30.30 in6.2 miNW (320°)13.8 mphScattered Clouds
1:30 PM48.2 °F39.2 °F71 %30.30 in6.2 miNNW (330°)12.7 mphMostly Cloudy
2:00 PM48.2 °F39.2 °F71 %30.30 in6.2 miNW (320°)12.7 mphMostly Cloudy
2:30 PM48.2 °F41.0 °F76 %30.27 in6.2 miWNW (300°)11.5 mphMostly Cloudy
3:00 PM48.2 °F41.0 °F76 %30.27 in6.2 miNW (310°)13.8 mphMostly Cloudy
3:30 PM46.4 °F41.0 °F81 %30.27 in3.7 miNW (310°)11.5 mphRainLight Rain
4:00 PM48.2 °F41.0 °F76 %30.27 in6.2 miWNW (290°)9.2 mphMostly Cloudy
4:30 PM48.2 °F42.8 °F82 %30.24 in6.2 miWNW (300°)10.4 mphRainLight Rain
5:30 PM48.2 °F41.0 °F76 %30.24 in6.2 miWNW (300°)13.8 mphMostly Cloudy
6:00 PM48.2 °F41.0 °F76 %30.24 in6.2 miWNW (300°)13.8 mphRainLight Rain
6:30 PM46.4 °F42.8 °F87 %30.24 in2.5 miNW (310°)11.5 mphRainRain
7:00 PM46.4 °F42.8 °F87 %30.24 in4.3 miNW (310°)6.9 mphRainLight Rain
7:30 PM46.4 °F41.0 °F81 %30.24 in6.2 miWNW (290°)6.9 mphMostly Cloudy
8:00 PM48.2 °F41.0 °F76 %30.24 in6.2 miWNW (300°)9.2 mphMostly Cloudy
8:30 PM48.2 °F41.0 °F76 %30.24 in6.2 miWNW (290°)8.1 mphMostly Cloudy
9:00 PM48.2 °F41.0 °F76 %30.24 in6.2 miWNW (290°)6.9 mphMostly Cloudy
9:30 PM48.2 °F41.0 °F76 %30.24 in6.2 miWNW (290°)5.8 mphMostly Cloudy
10:00 PM48.2 °F41.0 °F76 %30.21 in6.2 miWNW (290°)5.8 mphMostly Cloudy
10:30 PM46.4 °F39.2 °F76 %30.21 in6.2 miVariable1.2 mphMostly Cloudy
11:00 PM46.4 °F41.0 °F81 %30.21 in6.2 miVariable1.2 mphScattered Clouds
11:30 PM44.6 °F39.2 °F81 %30.18 in6.2 miVariable1.2 mphPartly Cloudy
Hourly data recorded from LEBB, located miles away from Bilbao, Spain







STORIES FROM OUR PARTNERS